Location: Braisnes
(49.4772°N, 2.7750°E)
Time: 10:27:09
(UTC+00:00)

Daily predictions for brighter satellites

Satellite Brightness Start Highest point End
(mag) Time Altitude Azimuth Time Altitude Azimuth Time Altitude Azimuth
ATLAS 2AS CENTAUR R/B 3.9 16:26:06 10° NW 16:31:40 25° N 16:37:10 10° ENE
Cosmos 1844 Rocket 4.0 16:29:01 10° WSW 16:34:07 36° NW 16:39:18 10° NNE
UNK 4.3 16:30:42 10° NNE 16:35:00 37° E 16:39:16 10° SSE
Cosmos 1459 Rocket 4.3 16:29:33 10° SSW 16:35:51 81° W 16:42:16 10° N
DNEPR-1 R/B 4.4 16:31:46 10° NW 16:36:10 63° SW 16:41:15 10° SSE
YAOGAN 1 4.3 16:34:33 10° E 16:36:14 12° NE 16:37:55 10° NNE
COSMOS 2406 4.5 16:36:47 10° N 16:41:03 21° NE 16:45:18 10° E
Cosmos 2084 Rocket 3.4 16:37:18 10° SW 16:41:30 84° SE 16:45:43 10° NE
Cosmos 2100 Rocket 4.5 16:37:26 10° SSW 16:43:33 65° WNW 16:49:41 10° N
ATLAS CENTAUR R/B 2.5 16:41:01 10° W 16:44:02 27° NW 16:47:04 10° NNE
Cosmos 1441 Rocket 3.3 16:42:30 10° NNW 16:45:51 66° W 16:49:10 10° S
Cosmos 2221 Rocket 4.5 16:42:03 10° NNW 16:46:27 56° W 16:50:47 10° S
SAR-Lupe-4 3.9 16:43:04 10° SE 16:46:28 43° ENE 16:49:54 10° N
Cosmos 1833 Rocket 2.9 16:41:00 10° NNW 16:46:40 78° WSW 16:52:17 10° SSE
ARIANE 5 R/B 2.6 16:42:22 10° SE 16:47:09 50° ENE 16:52:00 10° N
USA 215 3.4 16:48:11 10° SE 16:54:44 84° SW 17:01:20 10° WNW
Timation 1 Rocket 4.4 16:49:09 10° NNW 16:55:02 56° NE 17:00:53 10° SE
IRS-P3 4.4 16:52:52 10° SE 16:57:57 47° ENE 17:03:02 10° N
MOS 1 Rocket 3.7 16:56:11 10° SE 17:00:05 34° ENE 17:04:10 10° N
ATLAS 5 CENTAUR R/B 2.5 16:56:08 10° NW 17:00:24 58° SW 17:05:43 10° SSE
Cosmos 1484 Rocket 4.2 17:00:47 10° S 17:04:05 39° W 17:07:26 10° NNW
Iridium 4 Rocket 4.3 17:01:25 10° SSW 17:06:18 50° W 17:10:49 10° N
Resurs 01 Rocket 3.6 17:08:57 11° NE 17:08:57 11° NE 17:09:43 10° NE
Cosmos 2233 Rocket 4.0 17:02:19 10° S 17:08:38 87° E 17:15:00 10° N
RESURS DK-1 2.2 17:05:13 10° NNW 17:09:13 62° ENE 17:13:10 10° SE
Cosmos 1602 4.2 17:06:55 10° NNE 17:09:30 24° ENE 17:12:04 10° SE
Cosmos 407 Rocket 3.7 17:04:43 10° S 17:09:40 48° ESE 17:14:36 10° NNE
Cosmos 1725 Rocket 4.4 17:03:26 10° SSW 17:09:41 68° WNW 17:16:00 10° N
Cosmos 2061 Rocket 4.0 17:04:51 10° S 17:11:09 82° E 17:17:25 10° N
Geosat FO 4.5 17:12:28 10° SE 17:15:11 39° NE 17:17:54 10° NNW
ISS -3.1 17:12:01 10° SW 17:15:11 42° SSE 17:17:12 19° E
Cosmos 1782 Rocket 3.8 17:10:59 10° SSW 17:15:25 75° W 17:19:52 10° N
CZ-2D R/B 2.6 17:13:10 10° SSE 17:16:19 79° ENE 17:19:29 10° N
Cosmos 1869 3.1 17:13:46 10° S 17:17:10 50° E 17:20:35 10° NNE
ERS-1 4.4 17:13:11 10° SSE 17:18:19 76° ENE 17:23:26 10° NNW
USA 281 4.3 17:15:06 14° E 17:18:47 23° NE 17:23:41 10° N
SPOT 1/Viking Rocket 3.9 17:14:16 10° SE 17:19:06 42° ENE 17:24:00 10° N
Cosmos 1300 Rocket 4.1 17:15:17 10° SSW 17:19:37 61° WNW 17:23:58 10° N
COSMO-SKYMED 1 3.7 17:21:26 19° ENE 17:22:35 21° E 17:25:45 10° SE
SJ-12 3.7 17:19:19 10° SSE 17:23:07 90° W 17:26:57 10° NNW
Cosmos 1464 Rocket 4.4 17:18:58 10° SSE 17:24:40 38° E 17:30:19 10° NNE
AQUARIUS 4.0 17:22:31 10° SSE 17:26:56 79° ENE 17:31:21 10° NNW
SL-12 R/B(2) 4.4 17:19:43 10° SSW 17:27:33 67° ESE 17:36:59 11° NE
Cosmos 540 Rocket 3.4 17:24:05 10° NNW 17:29:15 85° ENE 17:34:22 10° SSE
BREEZE-M DEB (TANK) 2.5 17:27:03 10° SW 17:29:28 54° SSE 17:32:21 21° E
Cosmos 1400 Rocket 3.7 17:28:07 10° SE 17:31:12 24° E 17:31:12 24° E
Cosmos 1975 Rocket 3.7 17:28:17 10° NNW 17:32:35 59° W 17:36:52 10° S
Spot 4 Rocket 4.2 17:28:03 10° SE 17:32:54 46° ENE 17:37:47 10° N
Cosmos 1763 Rocket 3.7 17:29:29 10° NNW 17:34:44 75° WSW 17:39:51 10° SSE
Cosmos 1812 2.0 17:33:42 10° S 17:36:32 51° E 17:37:34 31° NE
Cosmos 1140 Rocket 4.2 17:36:32 10° SW 17:41:36 54° WNW 17:46:40 10° NNE
Cosmos 2151 Rocket 3.9 17:37:34 10° SSE 17:41:47 41° E 17:45:29 13° NNE
Cosmos 2058 2.7 17:38:41 10° N 17:42:39 65° E 17:46:36 10° SSE
SMAP 4.3 17:38:37 10° S 17:43:04 45° W 17:47:34 10° NNW
Cosmos 44 Rocket 3.3 17:39:42 10° SSW 17:44:24 60° ESE 17:47:06 25° NE
SKYMED 2 3.6 17:45:23 12° NNE 17:49:25 55° E 17:53:40 10° S
Cosmos 1943 Rocket 2.1 17:43:48 10° SSW 17:49:25 82° ESE 17:54:09 15° NNE
Helios 1A Rocket 3.5 17:51:57 29° SE 17:51:57 29° SE 17:54:08 10° SSE
Okean 1 Rocket 3.6 17:47:45 10° SSE 17:51:42 34° E 17:51:43 34° E
CZ-2D R/B 3.3 17:47:49 10° SSE 17:51:57 73° ENE 17:56:10 10° N
SJ-7 4.1 17:48:21 10° SSE 17:51:57 55° ENE 17:55:35 10° N
IRAS Rocket 4.1 17:46:54 10° SSE 17:52:25 68° ENE 17:57:54 10° NNW
Sich 1 Rocket 4.1 17:48:36 10° SSE 17:52:45 36° E 17:53:29 34° ENE
Cosmos 2082 Rocket 2.1 17:47:46 10° NNW 17:53:25 84° ENE 17:59:03 10° SSE
PSLV R/B 3.4 17:49:36 10° SSE 17:53:32 53° ENE 17:57:29 10° N
Cosmos 1072 Rocket 4.4 17:51:39 10° S 17:57:43 69° E 18:03:48 10° NNE
Cosmos 2026 Rocket 4.3 17:52:02 10° N 17:57:46 41° ENE 18:03:30 10° SE
Cosmos 2278 Rocket 2.1 17:52:32 10° SSW 17:58:12 89° ESE 18:02:47 16° NNE
NOAA 6 4.1 17:55:20 10° SE 18:00:18 52° ENE 18:05:18 10° N
BREEZE-M DEB (TANK) 3.3 17:58:24 10° SW 18:01:13 58° SSE 18:03:16 34° E
Aureole 3 Rocket 2.4 17:58:14 10° SSW 18:01:14 69° W 18:03:11 21° N
BREEZE-M DEB (TANK) 2.9 17:59:32 10° WSW 18:02:09 86° SSE 18:04:09 35° ENE
SL-16 R/B 4.2 18:00:01 10° N 18:05:23 31° WNW 18:10:45 10° WSW
Geosat 4.1 18:04:10 33° ESE 18:06:11 54° NE 18:11:05 10° NNW
Cosmos 2251 Rocket 3.4 18:03:44 10° SSW 18:09:00 82° ESE 18:12:38 21° NNE
YAOGAN 1 2.4 18:07:08 10° SSE 18:11:24 85° ENE 18:15:41 10° NNW
Cosmos 371 Rocket 3.4 18:08:00 10° S 18:12:37 49° ESE 18:12:52 48° E
Cosmos 304 Rocket 3.8 18:09:07 10° S 18:13:41 52° ESE 18:13:57 51° E
Cosmos 841 Rocket 3.4 18:09:13 10° NNW 18:14:29 69° ENE 18:17:15 28° SE
SJ 16-02 1.1 18:10:59 10° S 18:15:15 67° ESE 18:15:42 61° ENE
SL-19 R/B 4.0 18:10:25 10° SSE 18:15:38 89° ENE 18:20:54 10° NNW
Nadezhda 4 Rocket 4.0 18:13:36 10° N 18:19:56 85° W 18:26:09 10° S
CZ-4C R/B 3.9 18:15:48 10° WNW 18:19:59 23° N 18:22:35 18° NNE
Cosmos 1862 3.5 18:18:43 10° NNW 18:22:18 59° W 18:25:52 10° S
Resurs 1-3 3.6 18:19:05 10° S 18:23:23 79° WSW 18:27:43 10° NNW
ATLAS 2AS CENTAUR R/B 3.0 18:17:43 10° NW 18:24:15 46° NE 18:25:35 41° ENE
COSMOS 2406 3.1 18:20:29 10° NNW 18:26:13 84° ENE 18:29:07 30° SSE
Cosmos 1627 Rocket 4.3 18:22:17 10° N 18:28:24 64° ENE 18:34:30 10° SSE
Cosmos 1656 Rocket 4.1 18:24:09 10° S 18:28:32 42° SE 18:28:32 42° SE
Cosmos 2195 Rocket 4.4 18:27:28 10° N 18:33:50 84° E 18:40:11 10° S
Cosmos 1536 Rocket 4.4 18:30:05 10° NNW 18:34:24 51° W 18:38:39 10° S
Okean 2 Rocket 3.2 18:32:12 10° SSW 18:36:35 73° W 18:37:52 44° N
Cosmos 1190 Rocket 4.3 18:34:41 10° SSW 18:39:57 68° WNW 18:42:26 32° N
Cosmos 2344 3.8 18:34:37 10° NW 18:42:28 80° NE 18:47:32 34° SE
Cosmos 676 Rocket 3.9 18:37:30 10° SSW 18:42:49 83° ESE 18:43:15 75° NE
Resurs 01 Rocket 3.2 18:46:22 25° N 18:46:22 25° N 18:48:16 10° N
Meteor 2-3 Rocket 3.7 18:40:01 10° NNW 18:45:45 86° W 18:50:00 18° S
Cosmos 2297 Rocket 4.4 18:47:28 10° N 18:48:17 11° N 18:48:17 11° N
ISS -1.5 18:48:33 10° W 18:50:07 25° W 18:50:07 25° W
Cosmos 1954 Rocket 4.3 18:47:41 10° SW 18:52:55 65° WNW 18:54:18 46° N
COSMO-SKYMED 1 3.5 18:57:47 42° WNW 18:58:06 42° WNW 19:02:00 10° SW
USA 281 3.0 19:02:00 73° E 19:02:24 76° ENE 19:08:59 10° NNW
Cosmos 1943 Rocket 4.1 19:29:21 10° W 19:33:48 24° NW 19:35:40 20° NNW
Cosmos 2278 Rocket 4.2 19:38:40 10° W 19:43:03 22° NW 19:44:37 20° NNW
SJ 16-02 4.2 19:50:52 10° W 19:52:17 15° WNW 19:52:17 15° WNW
CZ-4C R/B 4.4 20:05:12 10° NW 20:07:32 20° NNW 20:07:32 20° NNW
ATLAS 2AS CENTAUR R/B 3.8 20:08:45 10° NW 20:13:01 39° WNW 20:13:01 39° WNW
